Time,TemperatureF,DewpointF,PressureIn,WindDirection,WindDirectionDegrees,WindSpeedMPH,WindSpeedGustMPH,Humidity,HourlyPrecipIn,Conditions,Clouds,dailyrainin,SoftwareType,DateUTC
2013-11-10 00:00:00,38.5,31.9,29.92,ENE,70,2.0,5.0,77,0.00,,,0.00,Wunderground v.1.15,2013-11-10 05:00:00,
2013-11-10 00:10:00,38.5,31.9,29.92,NE,55,2.0,2.0,77,0.00,,,0.00,Wunderground v.1.15,2013-11-10 05:10:00,
2013-11-10 00:20:00,38.5,31.9,29.92,NE,48,2.0,2.0,77,0.00,,,0.00,Wunderground v.1.15,2013-11-10 05:20:00,
2013-11-10 00:30:00,38.6,31.4,29.91,NE,48,1.0,6.0,75,0.00,,,0.00,Wunderground v.1.15,2013-11-10 05:30:00,
2013-11-10 00:40:00,39.1,31.5,29.91,ESE,103,1.0,2.0,74,0.00,,,0.00,Wunderground v.1.15,2013-11-10 05:40:00,
2013-11-10 00:50:00,38.8,32.2,29.90,East,79,1.0,1.0,77,0.00,,,0.00,Wunderground v.1.15,2013-11-10 05:50:00,
2013-11-10 01:00:00,39.5,30.5,29.89,East,89,0.0,0.0,70,0.00,,,0.00,Wunderground v.1.15,2013-11-10 06:00:00,
2013-11-10 01:10:00,39.2,31.9,29.89,ENE,65,1.0,9.0,75,0.00,,,0.00,Wunderground v.1.15,2013-11-10 06:10:00,
2013-11-10 01:20:00,39.3,32.0,29.89,East,83,1.0,1.0,75,0.00,,,0.00,Wunderground v.1.15,2013-11-10 06:20:00,
2013-11-10 01:30:00,39.2,32.6,29.89,East,87,0.0,9.0,77,0.00,,,0.00,Wunderground v.1.15,2013-11-10 06:30:00,
2013-11-10 01:40:00,39.1,32.2,29.89,ESE,114,1.0,1.0,76,0.00,,,0.00,Wunderground v.1.15,2013-11-10 06:40:00,
2013-11-10 01:50:00,39.3,32.0,29.88,ESE,115,0.0,9.0,75,0.00,,,0.00,Wunderground v.1.15,2013-11-10 06:50:00,
2013-11-10 02:00:00,39.5,32.2,29.87,ESE,121,0.0,9.0,75,0.00,,,0.00,Wunderground v.1.15,2013-11-10 07:00:00,
2013-11-10 02:10:00,40.1,32.1,29.87,SE,131,1.0,9.0,73,0.00,,,0.00,Wunderground v.1.15,2013-11-10 07:10:00,
2013-11-10 02:20:00,40.1,33.1,29.87,ESE,111,3.0,3.0,76,0.00,,,0.00,Wunderground v.1.15,2013-11-10 07:20:00,
2013-11-10 02:30:00,40.2,33.6,29.87,SSE,149,2.0,9.0,77,0.00,,,0.00,Wunderground v.1.15,2013-11-10 07:30:00,
2013-11-10 02:40:00,40.2,33.2,29.87,ESE,117,1.0,9.0,76,0.00,,,0.00,Wunderground v.1.15,2013-11-10 07:40:00,
2013-11-10 02:50:00,40.2,34.2,29.86,ESE,112,2.0,9.0,79,0.00,,,0.01,Wunderground v.1.15,2013-11-10 07:50:00,
2013-11-10 03:00:00,40.6,34.6,29.86,SSE,150,3.0,9.0,79,0.00,,,0.01,Wunderground v.1.15,2013-11-10 08:00:00,
2013-11-10 03:10:00,41.1,33.8,29.86,ESE,121,2.0,2.0,75,0.00,,,0.01,Wunderground v.1.15,2013-11-10 08:10:00,
2013-11-10 03:20:00,40.8,34.5,29.85,ESE,121,2.0,9.0,78,0.00,,,0.01,Wunderground v.1.15,2013-11-10 08:20:00,
2013-11-10 03:30:00,40.8,34.5,29.84,ESE,106,4.0,9.0,78,0.00,,,0.01,Wunderground v.1.15,2013-11-10 08:30:00,
2013-11-10 03:40:00,41.1,34.1,29.84,ESE,121,5.0,9.0,76,0.00,,,0.01,Wunderground v.1.15,2013-11-10 08:40:00,
2013-11-10 03:50:00,41.2,34.2,29.84,ESE,106,4.0,4.0,76,0.00,,,0.01,Wunderground v.1.15,2013-11-10 08:50:00,
2013-11-10 04:00:00,41.3,34.3,29.83,ESE,114,3.0,9.0,76,0.00,,,0.01,Wunderground v.1.15,2013-11-10 09:00:00,
2013-11-10 04:10:00,41.3,34.0,29.83,SE,137,3.0,3.0,75,0.00,,,0.01,Wunderground v.1.15,2013-11-10 09:10:00,
2013-11-10 04:20:00,40.9,33.2,29.82,ESE,121,2.0,2.0,74,0.00,,,0.01,Wunderground v.1.15,2013-11-10 09:20:00,
2013-11-10 04:30:00,39.9,32.6,29.82,ESE,116,1.0,1.0,75,0.00,,,0.01,Wunderground v.1.15,2013-11-10 09:30:00,
2013-11-10 04:40:00,39.6,32.7,29.82,ESE,121,0.0,9.0,76,0.00,,,0.01,Wunderground v.1.15,2013-11-10 09:40:00,
2013-11-10 04:50:00,40.1,32.8,29.82,ESE,106,0.0,9.0,75,0.00,,,0.01,Wunderground v.1.15,2013-11-10 09:50:00,
2013-11-10 05:00:00,40.3,33.3,29.81,ESE,111,1.0,1.0,76,0.00,,,0.01,Wunderground v.1.15,2013-11-10 10:00:00,
2013-11-10 05:10:00,40.8,32.8,29.81,SE,126,1.0,1.0,73,0.00,,,0.01,Wunderground v.1.15,2013-11-10 10:10:00,
2013-11-10 05:20:00,41.5,32.8,29.80,ESE,121,2.0,9.0,71,0.00,,,0.01,Wunderground v.1.15,2013-11-10 10:20:00,
2013-11-10 05:30:00,41.8,32.7,29.81,SE,137,1.0,9.0,70,0.00,,,0.01,Wunderground v.1.15,2013-11-10 10:30:00,
2013-11-10 05:40:00,41.9,33.2,29.81,ESE,113,3.0,3.0,71,0.00,,,0.01,Wunderground v.1.15,2013-11-10 10:40:00,
2013-11-10 05:50:00,42.6,32.8,29.79,SE,126,4.0,9.0,68,0.00,,,0.01,Wunderground v.1.15,2013-11-10 10:50:00,
2013-11-10 06:00:00,42.8,31.8,29.78,SE,126,2.0,2.0,65,0.00,,,0.01,Wunderground v.1.15,2013-11-10 11:00:00,
2013-11-10 06:10:00,42.8,31.8,29.78,SE,135,2.0,7.0,65,0.00,,,0.01,Wunderground v.1.15,2013-11-10 11:10:00,
2013-11-10 06:20:00,42.8,30.7,29.78,SE,126,3.0,3.0,62,0.00,,,0.01,Wunderground v.1.15,2013-11-10 11:20:00,
2013-11-10 06:30:00,42.3,31.7,29.81,SE,141,1.0,1.0,66,0.00,,,0.01,Wunderground v.1.15,2013-11-10 11:30:00,
2013-11-10 06:40:00,41.2,32.5,29.81,SE,141,0.0,0.0,71,0.00,,,0.01,Wunderground v.1.15,2013-11-10 11:40:00,
2013-11-10 06:50:00,40.5,32.9,29.80,SE,141,1.0,3.0,74,0.00,,,0.01,Wunderground v.1.15,2013-11-10 11:50:00,
2013-11-10 07:00:00,40.2,32.2,29.81,SE,141,2.0,2.0,73,0.00,,,0.01,Wunderground v.1.15,2013-11-10 12:00:00,
2013-11-10 07:10:00,40.5,31.8,29.81,SE,141,0.0,11.0,71,0.00,,,0.01,Wunderground v.1.15,2013-11-10 12:10:00,
2013-11-10 07:20:00,40.8,32.1,29.81,SE,143,0.0,11.0,71,0.00,,,0.01,Wunderground v.1.15,2013-11-10 12:20:00,
2013-11-10 07:30:00,40.9,32.6,29.82,ESE,121,0.0,11.0,72,0.00,,,0.01,Wunderground v.1.15,2013-11-10 12:30:00,
2013-11-10 07:40:00,40.9,33.6,29.82,SSE,154,3.0,3.0,75,0.00,,,0.01,Wunderground v.1.15,2013-11-10 12:40:00,
2013-11-10 07:50:00,40.5,35.1,29.83,East,100,2.0,11.0,81,0.00,,,0.01,Wunderground v.1.15,2013-11-10 12:50:00,
2013-11-10 08:00:00,40.5,34.5,29.83,ESE,121,2.0,2.0,79,0.00,,,0.01,Wunderground v.1.15,2013-11-10 13:00:00,
2013-11-10 08:10:00,40.6,34.0,29.83,SE,135,3.0,11.0,77,0.00,,,0.01,Wunderground v.1.15,2013-11-10 13:10:00,
2013-11-10 08:20:00,40.9,35.2,29.82,East,79,4.0,11.0,80,0.00,,,0.01,Wunderground v.1.15,2013-11-10 13:20:00,
2013-11-10 08:30:00,40.9,35.2,29.82,ESE,121,5.0,5.0,80,0.00,,,0.01,Wunderground v.1.15,2013-11-10 13:30:00,
2013-11-10 08:40:00,41.3,35.9,29.82,SE,126,3.0,3.0,81,0.00,,,0.01,Wunderground v.1.15,2013-11-10 13:40:00,
2013-11-10 08:50:00,41.9,35.9,29.82,SSE,151,5.0,5.0,79,0.00,,,0.01,Wunderground v.1.15,2013-11-10 13:50:00,
2013-11-10 09:00:00,42.2,36.2,29.81,SSE,148,5.0,11.0,79,0.00,,,0.01,Wunderground v.1.15,2013-11-10 14:00:00,
2013-11-10 09:10:00,42.6,36.2,29.81,ESE,117,6.0,6.0,78,0.00,,,0.01,Wunderground v.1.15,2013-11-10 14:10:00,
2013-11-10 09:20:00,43.1,36.7,29.81,ESE,113,4.0,11.0,78,0.00,,,0.01,Wunderground v.1.15,2013-11-10 14:20:00,
2013-11-10 09:30:00,43.2,36.5,29.80,SE,131,5.0,11.0,77,0.00,,,0.01,Wunderground v.1.15,2013-11-10 14:30:00,
2013-11-10 09:40:00,43.5,37.1,29.80,SSE,149,3.0,3.0,78,0.00,,,0.01,Wunderground v.1.15,2013-11-10 14:40:00,
2013-11-10 09:50:00,46.2,37.0,29.80,SE,140,2.0,11.0,70,0.00,,,0.01,Wunderground v.1.15,2013-11-10 14:50:00,
2013-11-10 10:00:00,45.8,36.9,29.80,SSE,156,6.0,6.0,71,0.00,,,0.01,Wunderground v.1.15,2013-11-10 15:00:00,
2013-11-10 10:10:00,45.2,36.7,29.80,SSE,154,3.0,11.0,72,0.00,,,0.01,Wunderground v.1.15,2013-11-10 15:10:00,
2013-11-10 10:20:00,44.9,36.4,29.80,ESE,121,2.0,11.0,72,0.00,,,0.01,Wunderground v.1.15,2013-11-10 15:20:00,
2013-11-10 10:30:00,44.6,36.5,29.80,East,95,3.0,3.0,73,0.00,,,0.01,Wunderground v.1.15,2013-11-10 15:30:00,
2013-11-10 10:40:00,44.5,37.1,29.80,ESE,121,2.0,11.0,75,0.00,,,0.01,Wunderground v.1.15,2013-11-10 15:40:00,
2013-11-10 10:50:00,44.3,36.2,29.79,SE,131,3.0,11.0,73,0.00,,,0.01,Wunderground v.1.15,2013-11-10 15:50:00,
2013-11-10 11:00:00,44.5,37.1,29.78,ESE,117,2.0,2.0,75,0.00,,,0.01,Wunderground v.1.15,2013-11-10 16:00:00,
2013-11-10 11:10:00,44.5,36.7,29.78,South,177,3.0,3.0,74,0.00,,,0.01,Wunderground v.1.15,2013-11-10 16:10:00,
2013-11-10 11:20:00,44.3,37.5,29.78,ESE,121,3.0,11.0,77,0.00,,,0.01,Wunderground v.1.15,2013-11-10 16:20:00,
2013-11-10 11:30:00,43.9,37.5,29.78,SE,126,4.0,11.0,78,0.00,,,0.01,Wunderground v.1.15,2013-11-10 16:30:00,
2013-11-10 11:40:00,43.6,37.5,29.78,ESE,106,3.0,11.0,79,0.00,,,0.01,Wunderground v.1.15,2013-11-10 16:40:00,
2013-11-10 11:50:00,43.5,37.7,29.77,ESE,112,3.0,3.0,80,0.00,,,0.02,Wunderground v.1.15,2013-11-10 16:50:00,
2013-11-10 12:00:00,43.2,38.4,29.77,ESE,106,4.0,4.0,83,0.00,,,0.02,Wunderground v.1.15,2013-11-10 17:00:00,
2013-11-10 12:10:00,43.1,38.0,29.77,SE,131,5.0,5.0,82,0.00,,,0.02,Wunderground v.1.15,2013-11-10 17:10:00,
2013-11-10 12:20:00,43.5,38.1,29.76,East,89,4.0,5.0,81,0.00,,,0.02,Wunderground v.1.15,2013-11-10 17:20:00,
2013-11-10 12:30:00,43.6,37.2,29.76,ESE,106,4.0,4.0,78,0.00,,,0.02,Wunderground v.1.15,2013-11-10 17:30:00,
2013-11-10 12:40:00,43.8,37.4,29.76,SE,141,6.0,9.0,78,0.00,,,0.02,Wunderground v.1.15,2013-11-10 17:40:00,
2013-11-10 12:50:00,43.8,37.7,29.75,ESE,121,6.0,8.0,79,0.00,,,0.02,Wunderground v.1.15,2013-11-10 17:50:00,
2013-11-10 13:00:00,44.8,39.3,29.75,SSE,155,5.0,8.0,81,0.00,,,0.02,Wunderground v.1.15,2013-11-10 18:00:00,
2013-11-10 13:10:00,45.7,38.6,29.75,ESE,111,5.0,11.0,76,0.00,,,0.02,Wunderground v.1.15,2013-11-10 18:10:00,
2013-11-10 13:20:00,46.2,38.7,29.75,SSE,152,4.0,11.0,75,0.00,,,0.02,Wunderground v.1.15,2013-11-10 18:20:00,
2013-11-10 13:30:00,47.4,38.1,29.74,South,174,5.0,11.0,70,0.00,,,0.02,Wunderground v.1.15,2013-11-10 18:30:00,
2013-11-10 13:40:00,47.0,37.4,29.74,SE,139,6.0,11.0,69,0.00,,,0.02,Wunderground v.1.15,2013-11-10 18:40:00,
2013-11-10 13:50:00,48.3,39.3,29.75,SE,141,4.0,4.0,71,0.00,,,0.02,Wunderground v.1.15,2013-11-10 18:50:00,
2013-11-10 14:00:00,48.9,37.6,29.75,ESE,110,3.0,11.0,65,0.00,,,0.02,Wunderground v.1.15,2013-11-10 19:00:00,
2013-11-10 14:10:00,47.1,36.7,29.75,SE,141,4.0,4.0,67,0.00,,,0.02,Wunderground v.1.15,2013-11-10 19:10:00,
2013-11-10 14:20:00,46.4,36.4,29.75,SE,139,4.0,11.0,68,0.00,,,0.02,Wunderground v.1.15,2013-11-10 19:20:00,
2013-11-10 14:30:00,45.7,36.5,29.75,ENE,60,3.0,3.0,70,0.00,,,0.02,Wunderground v.1.15,2013-11-10 19:30:00,
2013-11-10 14:40:00,45.4,36.2,29.75,ESE,121,3.0,11.0,70,0.00,,,0.02,Wunderground v.1.15,2013-11-10 19:40:00,
2013-11-10 14:50:00,45.1,36.3,29.76,SSE,155,1.0,11.0,71,0.00,,,0.02,Wunderground v.1.15,2013-11-10 19:50:00,
2013-11-10 15:00:00,44.9,37.1,29.77,SSE,167,2.0,2.0,74,0.00,,,0.02,Wunderground v.1.15,2013-11-10 20:00:00,
2013-11-10 15:10:00,43.6,37.5,29.77,SSW,201,4.0,11.0,79,0.00,,,0.03,Wunderground v.1.15,2013-11-10 20:10:00,
2013-11-10 15:20:00,42.3,37.5,29.78,WNW,285,3.0,11.0,83,0.00,,,0.03,Wunderground v.1.15,2013-11-10 20:20:00,
2013-11-10 15:30:00,41.9,37.4,29.78,West,277,1.0,11.0,84,0.00,,,0.03,Wunderground v.1.15,2013-11-10 20:30:00,
2013-11-10 15:40:00,41.9,37.4,29.78,SW,227,0.0,11.0,84,0.00,,,0.03,Wunderground v.1.15,2013-11-10 20:40:00,
2013-11-10 15:50:00,41.9,37.4,29.78,SW,224,0.0,11.0,84,0.00,,,0.03,Wunderground v.1.15,2013-11-10 20:50:00,
2013-11-10 16:00:00,41.8,37.6,29.78,ESE,121,1.0,1.0,85,0.00,,,0.03,Wunderground v.1.15,2013-11-10 21:00:00,
2013-11-10 16:10:00,41.8,37.3,29.78,SSE,152,2.0,2.0,84,0.00,,,0.03,Wunderground v.1.15,2013-11-10 21:10:00,
2013-11-10 16:20:00,42.1,36.7,29.79,East,99,1.0,11.0,81,0.00,,,0.03,Wunderground v.1.15,2013-11-10 21:20:00,
2013-11-10 16:30:00,42.3,36.3,29.80,ESE,114,1.0,1.0,79,0.00,,,0.03,Wunderground v.1.15,2013-11-10 21:30:00,
2013-11-10 16:40:00,42.6,35.6,29.80,SW,233,2.0,11.0,76,0.00,,,0.03,Wunderground v.1.15,2013-11-10 21:40:00,
2013-11-10 16:50:00,42.8,35.4,29.80,SSE,160,2.0,11.0,75,0.00,,,0.03,Wunderground v.1.15,2013-11-10 21:50:00,
2013-11-10 17:00:00,42.6,35.2,29.80,SSE,150,1.0,1.0,75,0.00,,,0.03,Wunderground v.1.15,2013-11-10 22:00:00,
2013-11-10 17:10:00,42.6,35.2,29.80,SSW,213,2.0,2.0,75,0.00,,,0.03,Wunderground v.1.15,2013-11-10 22:10:00,
2013-11-10 17:20:00,42.6,34.9,29.80,SSE,152,1.0,11.0,74,0.00,,,0.03,Wunderground v.1.15,2013-11-10 22:20:00,
2013-11-10 17:30:00,42.6,34.9,29.81,SSE,163,1.0,11.0,74,0.00,,,0.03,Wunderground v.1.15,2013-11-10 22:30:00,
2013-11-10 17:40:00,42.5,34.8,29.81,SSE,150,2.0,2.0,74,0.00,,,0.03,Wunderground v.1.15,2013-11-10 22:40:00,
2013-11-10 17:50:00,42.5,34.5,29.81,South,173,1.0,1.0,73,0.00,,,0.03,Wunderground v.1.15,2013-11-10 22:50:00,
2013-11-10 18:00:00,42.5,34.5,29.81,ESE,105,2.0,11.0,73,0.00,,,0.03,Wunderground v.1.15,2013-11-10 23:00:00,
2013-11-10 18:10:00,42.3,34.6,29.81,SE,126,3.0,3.0,74,0.00,,,0.03,Wunderground v.1.15,2013-11-10 23:10:00,
2013-11-10 18:20:00,42.3,34.9,29.81,SE,138,2.0,3.0,75,0.00,,,0.03,Wunderground v.1.15,2013-11-10 23:20:00,
2013-11-10 18:30:00,42.2,34.8,29.82,SW,219,3.0,3.0,75,0.00,,,0.03,Wunderground v.1.15,2013-11-10 23:30:00,
2013-11-10 18:40:00,42.2,35.2,29.82,SSW,207,2.0,2.0,76,0.00,,,0.03,Wunderground v.1.15,2013-11-10 23:40:00,
2013-11-10 18:50:00,41.9,34.9,29.82,SSE,159,2.0,2.0,76,0.00,,,0.03,Wunderground v.1.15,2013-11-10 23:50:00,
2013-11-10 19:00:00,41.8,34.8,29.83,SE,143,1.0,3.0,76,0.00,,,0.03,Wunderground v.1.15,2013-11-11 00:00:00,
2013-11-10 19:10:00,41.8,34.5,29.83,SSE,160,2.0,12.0,75,0.00,,,0.03,Wunderground v.1.15,2013-11-11 00:10:00,
2013-11-10 19:20:00,41.8,34.5,29.83,SSE,167,3.0,3.0,75,0.00,,,0.03,Wunderground v.1.15,2013-11-11 00:20:00,
2013-11-10 19:30:00,41.6,33.9,29.83,ESE,107,3.0,12.0,74,0.00,,,0.03,Wunderground v.1.15,2013-11-11 00:30:00,
2013-11-10 19:40:00,41.5,34.2,29.83,SE,139,3.0,3.0,75,0.00,,,0.03,Wunderground v.1.15,2013-11-11 00:40:00,
2013-11-10 19:50:00,41.3,34.6,29.83,South,172,3.0,12.0,77,0.00,,,0.03,Wunderground v.1.15,2013-11-11 00:50:00,
2013-11-10 20:00:00,40.9,34.9,29.83,SE,131,2.0,2.0,79,0.00,,,0.03,Wunderground v.1.15,2013-11-11 01:00:00,
2013-11-10 20:10:00,40.6,34.3,29.83,East,95,2.0,12.0,78,0.00,,,0.03,Wunderground v.1.15,2013-11-11 01:10:00,
2013-11-10 20:20:00,40.6,33.3,29.83,SE,143,4.0,4.0,75,0.00,,,0.03,Wunderground v.1.15,2013-11-11 01:20:00,
2013-11-10 20:30:00,40.8,33.2,29.84,SW,227,3.0,3.0,74,0.00,,,0.03,Wunderground v.1.15,2013-11-11 01:30:00,
2013-11-10 20:40:00,40.6,32.6,29.84,West,266,3.0,3.0,73,0.00,,,0.03,Wunderground v.1.15,2013-11-11 01:40:00,
2013-11-10 20:50:00,40.3,33.0,29.85,SE,137,2.0,2.0,75,0.00,,,0.03,Wunderground v.1.15,2013-11-11 01:50:00,
2013-11-10 21:00:00,40.1,33.1,29.86,SW,227,2.0,2.0,76,0.00,,,0.03,Wunderground v.1.15,2013-11-11 02:00:00,
2013-11-10 21:10:00,39.6,32.7,29.86,ESE,112,1.0,1.0,76,0.00,,,0.03,Wunderground v.1.15,2013-11-11 02:10:00,
2013-11-10 21:20:00,39.3,32.4,29.86,West,281,1.0,12.0,76,0.00,,,0.03,Wunderground v.1.15,2013-11-11 02:20:00,
2013-11-10 21:30:00,39.1,32.5,29.87,SW,224,1.0,12.0,77,0.00,,,0.03,Wunderground v.1.15,2013-11-11 02:30:00,
2013-11-10 21:40:00,39.1,32.5,29.87,SW,233,1.0,1.0,77,0.00,,,0.03,Wunderground v.1.15,2013-11-11 02:40:00,
2013-11-10 21:50:00,39.1,32.5,29.88,WSW,249,2.0,2.0,77,0.00,,,0.03,Wunderground v.1.15,2013-11-11 02:50:00,
2013-11-10 22:00:00,39.1,32.2,29.89,West,274,1.0,1.0,76,0.00,,,0.03,Wunderground v.1.15,2013-11-11 03:00:00,
2013-11-10 22:10:00,38.9,31.6,29.89,SW,217,1.0,12.0,75,0.00,,,0.03,Wunderground v.1.15,2013-11-11 03:10:00,
2013-11-10 22:20:00,38.9,31.0,29.89,SSW,204,2.0,2.0,73,0.00,,,0.03,Wunderground v.1.15,2013-11-11 03:20:00,
2013-11-10 22:30:00,38.9,31.3,29.89,South,173,2.0,2.0,74,0.00,,,0.03,Wunderground v.1.15,2013-11-11 03:30:00,
2013-11-10 22:40:00,38.8,30.5,29.89,SW,235,3.0,12.0,72,0.00,,,0.03,Wunderground v.1.15,2013-11-11 03:40:00,
2013-11-10 22:50:00,38.8,30.5,29.91,WNW,282,5.0,12.0,72,0.00,,,0.03,Wunderground v.1.15,2013-11-11 03:50:00,
2013-11-10 23:00:00,38.5,29.9,29.92,WNW,299,4.0,12.0,71,0.00,,,0.03,Wunderground v.1.15,2013-11-11 04:00:00,
2013-11-10 23:10:00,38.3,29.4,29.92,SSW,200,4.0,4.0,70,0.00,,,0.03,Wunderground v.1.15,2013-11-11 04:10:00,
2013-11-10 23:20:00,38.2,29.3,29.92,WSW,251,2.0,12.0,70,0.00,,,0.03,Wunderground v.1.15,2013-11-11 04:20:00,
2013-11-10 23:30:00,38.0,28.7,29.93,WSW,241,3.0,3.0,69,0.00,,,0.03,Wunderground v.1.15,2013-11-11 04:30:00,
2013-11-10 23:40:00,38.0,28.4,29.93,SW,234,3.0,12.0,68,0.00,,,0.03,Wunderground v.1.15,2013-11-11 04:40:00,
2013-11-10 23:50:00,38.0,28.0,29.94,WSW,239,4.0,12.0,67,0.00,,,0.03,Wunderground v.1.15,2013-11-11 04:50:00,